Location: Pasadena-CA
(34.1440°N, 118.1100°W)
Time: 00:58:51
(UTC-07:00)

QB50P2 - Visible Passes

Search period start: 27 June 2022 00:00
Search period end: 07 July 2022 00:00
Orbit: 589 x 607 km, 97.9° (Epoch: 26 June)

Date Brightness Start Highest point End Pass type
(mag) Time Alt. Az. Time Alt. Az. Time Alt. Az.
27 Jun ? 02:07:50 10° NNE 02:10:28 37° NNE 02:10:28 37° NNE visible
28 Jun ? 02:18:18 10° N 02:21:03 40° N 02:21:03 40° N visible
29 Jun ? 02:28:50 10° N 02:31:37 38° NNW 02:31:37 38° NNW visible
30 Jun ? 02:39:25 10° N 02:42:11 33° NNW 02:42:11 33° NNW visible
01 Jul ? 01:15:22 10° NE 01:16:03 13° ENE 01:16:03 13° ENE visible
01 Jul ? 02:50:03 10° N 02:52:45 28° NW 02:52:45 28° NW visible
02 Jul ? 01:25:19 10° NE 01:26:37 16° ENE 01:26:37 16° ENE visible
02 Jul ? 03:00:48 10° NNW 03:03:19 22° NW 03:03:19 22° NW visible
03 Jul ? 01:35:26 10° NE 01:37:10 20° NE 01:37:10 20° NE visible
03 Jul ? 03:11:38 10° NNW 03:13:52 18° NW 03:13:52 18° NW visible
04 Jul ? 01:45:40 10° NNE 01:47:42 25° NE 01:47:42 25° NE visible
04 Jul ? 03:22:40 10° NW 03:24:25 14° WNW 03:24:25 14° WNW visible
05 Jul ? 01:55:58 10° NNE 01:58:15 30° NE 01:58:15 30° NE visible
05 Jul ? 03:34:14 10° NW 03:34:57 11° WNW 03:34:57 11° WNW visible
06 Jul ? 02:06:20 10° NNE 02:08:47 34° NNE 02:08:47 34° NNE visible
